#timestamp,LO_Frequency,Hit,StdDev 
1638104415.3,286047000.9,N
1638104435.1,286046996.6,N
1638104455.9,286046998.3,N
1638104475.7,286046998.4,N
1638104495.5,286046999.0,N
1638104515.4,286046999.2,N
1638104535.2,286046999.0,N
1638104555.0,286046998.6,N
1638104556.0,286046998.6,N
1638104575.8,286046999.5,N
1638104595.6,286046998.3,N
1638104615.5,286046999.5,N
1638104635.3,286046996.7,N
1638104655.1,286046998.9,N
1638104675.9,286046999.1,N
1638104695.7,286046998.2,N
1638104715.5,286046998.1,N
1638104735.4,286046999.6,N
1638104755.2,286046998.8,N
1638104775.0,286047000.9,N
1638104776.0,286047000.9,N
1638104795.8,286046999.0,N
1638104815.6,286047000.9,N
1638104835.5,286046996.7,N
1638104855.3,286046998.8,N
1638104875.1,286047000.2,N
1638104895.9,286047001.2,N
1638104915.7,286047000.2,N
1638104935.5,286047001.2,N
1638104955.4,286046996.5,N
1638104975.2,286046999.5,N
1638104995.0,286046998.1,N
1638104995.9,286046998.1,N
1638105015.8,286047000.6,N
1638105035.6,286047002.5,N
1638105055.5,286047000.2,N
1638105075.3,286046998.9,N
1638105095.1,286046998.3,N
1638105115.9,286046998.1,N
1638105135.7,286046998.7,N
1638105155.5,286046998.2,N
1638105175.4,286046999.8,N
1638105195.2,286046996.5,N
1638105215.0,286046999.2,N
1638105215.9,286046999.2,N
1638105235.8,286047000.6,N
1638105255.6,286046998.4,N
1638105275.5,286046999.0,N
1638105295.3,286046996.8,N
1638105315.1,286047001.1,N
1638105335.9,286047002.4,N
1638105355.7,286046998.3,N
1638105375.5,286047000.4,N
1638105395.4,286046999.0,N
1638105415.2,286046998.7,N
1638105435.0,286047000.8,N
1638105436.0,286047000.8,N
1638105455.8,286046996.6,N
1638105475.6,286046998.9,N
1638105495.5,286046998.6,N
1638105515.3,286047000.5,N
1638105535.1,286047002.2,N
1638105555.9,286046998.2,N
1638105575.7,286046998.3,N
1638105595.5,286046997.7,N
1638105615.4,286046998.3,N
1638105635.2,286047000.9,N
1638105655.0,286046995.1,Y
1638105656.0,286046995.1,P
1638105675.8,286046996.7,N
1638105695.6,286046997.7,N
1638105715.5,286047000.7,N
1638105735.3,286046998.9,N
1638105755.1,286046996.9,N
1638105775.9,286047000.3,N
1638105795.7,286046996.8,N
1638105815.5,286046999.8,N
1638105835.4,286046999.2,N
1638105855.2,286047000.8,N
1638105875.0,286046999.1,N
1638105875.9,286046999.1,N
1638105895.8,286047000.9,N
1638105915.6,286046997.8,N
1638105935.5,286046996.8,N
1638105955.3,286046997.0,N
1638105975.1,286046998.6,N
1638105995.9,286046998.7,N
1638106015.7,286047002.8,N
1638106035.5,286046998.3,N
1638106055.4,286046999.2,N
1638106075.2,286046996.7,N
1638106095.0,286046996.8,N
1638106095.9,286046996.8,N
1638106115.8,286046996.5,N
1638106135.6,286046997.2,N
1638106155.5,286046998.9,N
1638106175.3,286046996.5,N
1638106195.1,286046996.5,N
1638106215.9,286046999.2,N
1638106235.7,286046998.2,N
1638106255.5,286046999.6,N
1638106275.4,286046999.2,N
1638106295.2,286046996.5,N
1638106315.0,286046998.3,N
1638106316.0,286046998.3,N
1638106335.8,286046999.0,N
1638106355.6,286046997.7,N
1638106375.5,286046998.5,N
1638106395.3,286046999.0,N
1638106415.1,286047000.6,N
1638106435.9,286046999.9,N
1638106455.7,286047000.7,N
1638106475.5,286047001.1,N
1638106495.4,286046995.4,N
1638106515.2,286047001.1,N
1638106535.1,286046999.9,N
1638106536.0,286046999.9,N
1638106555.8,286046999.1,N
1638106575.6,286047000.0,N
1638106595.5,286047000.6,N
1638106615.3,286046998.9,N
1638106635.1,286046998.8,N
1638106655.9,286047000.9,N
1638106675.7,286046998.4,N
1638106695.5,286046998.1,N
1638106715.4,286047000.6,N
1638106735.2,286046998.4,N
1638106755.1,286046998.8,N
1638106756.0,286046998.8,N
1638106775.8,286046998.4,N
1638106795.6,286046996.7,N
1638106815.5,286046997.0,N
1638106835.3,286046999.9,N
1638106855.1,286046999.3,N
1638106875.9,286046998.1,N
1638106895.7,286046999.1,N
1638106915.5,286046998.0,N
1638106935.4,286046996.5,N
1638106955.2,286046996.6,N
1638106975.1,286046997.7,N
1638106976.0,286046997.7,N
1638106995.8,286046996.5,N
1638107015.6,286046997.2,N
1638107035.5,286046995.0,Y
1638107055.3,286046996.5,P
1638107075.1,286046997.6,N
1638107095.9,286046998.5,N
1638107115.7,286047000.8,N
1638107135.6,286046996.6,N
1638107155.4,286046998.5,N
1638107175.2,286046997.7,N
1638107195.1,286046966.4,Y
1638107196.0,286046966.4,P
1638107215.8,286046967.8,N
1638107235.6,286046968.1,N
1638107255.5,286046968.7,N
1638107275.3,286046968.6,N
1638107295.1,286046966.2,Y
1638107315.9,286047019.0,P
1638107335.7,286047022.0,N
1638107355.6,286047020.6,N
1638107375.4,286047027.8,N
1638107395.2,286047021.2,N
1638107415.1,286047024.2,N
1638107416.0,286047024.2,N
1638107435.8,286047020.9,N
1638107455.6,286047022.4,N
1638107475.5,286047023.9,N
1638107495.3,286047023.5,N
1638107515.1,286047021.4,N
1638107535.9,286047023.0,N
1638107555.7,286047024.5,N
1638107575.6,286047021.8,N
1638107595.4,286047023.4,N
1638107615.2,286047022.4,N
1638107635.1,286047022.7,N
1638107636.0,286047022.7,N
1638107655.8,286047024.7,N
1638107675.6,286047022.2,N
1638107695.5,286047018.9,N
1638107715.3,286047023.1,N
1638107735.1,286047023.2,N
1638107755.9,286047021.5,N
1638107775.7,286047023.0,N
1638107795.6,286047024.8,N
1638107815.4,286047021.5,N
1638107835.2,286047021.3,N
1638107855.1,286047024.8,N
1638107856.0,286047024.8,Y
1638107875.8,286047001.1,P
1638107895.6,286046998.5,N
1638107915.5,286046999.8,N
1638107935.3,286047000.7,N
1638107955.1,286047000.5,N
1638107975.9,286047002.6,N
1638107995.7,286046998.7,N
